Weather History for Stanley, ND

Change the Weather History Date:

Sunday, February 17, 2013

  Actual Average (KMOT) Record (KMOT)
Temperature  
Mean Temperature 26 °F 18 °F  
Max Temperature 35 °F 26 °F 50 °F (2002)
Min Temperature 17 °F 9 °F -31 °F (1936)
Degree Days  
Heating Degree Days 39 48  
Month to date heating degree days 843  
Since 1 July heating degree days 6075  
Moisture  
Dew Point 28 °F    
Average Humidity 92    
Maximum Humidity 100    
Minimum Humidity 81    
Precipitation  
Precipitation 1.47 in 0.01 in 0.13 in (1964)
Month to date precipitation 0.22  
Year to date precipitation 0.73  
Sea Level Pressure  
Sea Level Pressure 29.52 in    
Wind  
Wind Speed 12 mph (West)    
Max Wind Speed 26 mph    
Max Gust Speed 32 mph    
Visibility 8 miles    
Events Rain , Snow    
T = Trace of Precipitation, MM = Missing Value Source: NWS Daily Summary

Daily Weather History Graph

Daily Weather History Graph

Search for Another Location

Airport:

Trip Planner

Search our weather history database for the weather conditions in past years. The results will help you decide how hot, cold, wet, or windy it might be!

Date:

Astronomy

Feb. 17, 2013 Rise Set
Actual Time 7:52 AM CST 6:15 PM CST
Civil Twilight 7:20 AM CST 6:47 PM CST
Nautical Twilight 6:44 AM CST 7:23 PM CST
Astronomical Twilight 6:08 AM CST 7:59 PM CST
Moon 11:09 AM CST (2/17) 1:49 AM CST (2/17)
Length of Visible Light 11h 26m
Length of Day
10h 22m
Waxing Crescent, 49% of the Moon is Illuminated
Feb 17
Waxing Crescent
Feb 17
First Quarter
Feb 25
Full
Mar 4
Last Quarter
Mar 11
New

Hourly Weather History & Observations

Time (CST) Temp. Windchill Dew Point Humidity Pressure Visibility Wind Dir Wind Speed Gust Speed Precip Events Conditions
12:15 AM 28.4 °F 21.2 °F 28.4 °F 100% 29.65 in 10.0 mi SW 6.9 mph - N/A   Overcast
12:35 AM 30.2 °F 22.6 °F 28.4 °F 93% 29.64 in 10.0 mi SW 8.1 mph - N/A   Overcast
12:55 AM 32.0 °F 25.6 °F 30.2 °F 93% 29.63 in 10.0 mi SW 6.9 mph - N/A   Overcast
1:15 AM 32.0 °F 25.6 °F 30.2 °F 93% 29.62 in 10.0 mi SSW 6.9 mph - N/A   Overcast
1:35 AM 32.0 °F 27.5 °F 30.2 °F 93% 29.61 in 10.0 mi SW 4.6 mph - N/A   Overcast
1:55 AM 32.0 °F 28.7 °F 28.4 °F 87% 29.61 in 10.0 mi SW 3.5 mph - N/A   Overcast
2:15 AM 32.0 °F 27.5 °F 28.4 °F 87% 29.60 in 10.0 mi SW 4.6 mph - N/A   Scattered Clouds
2:35 AM 30.2 °F 23.4 °F 28.4 °F 93% 29.59 in 10.0 mi SSW 6.9 mph - N/A   Scattered Clouds
2:55 AM 28.4 °F 22.2 °F 26.6 °F 93% 29.57 in 10.0 mi SSW 5.8 mph - N/A   Scattered Clouds
3:15 AM 28.4 °F - 26.6 °F 93% 29.56 in 10.0 mi Calm Calm - N/A   Clear
3:35 AM 30.2 °F 23.4 °F 26.6 °F 86% 29.55 in 10.0 mi SSW 6.9 mph - N/A   Clear
3:55 AM 32.0 °F 25.6 °F 28.4 °F 87% 29.54 in 10.0 mi South 6.9 mph - N/A   Clear
4:15 AM 32.0 °F 28.7 °F 28.4 °F 87% 29.54 in 10.0 mi SSW 3.5 mph - N/A   Clear
4:35 AM 32.0 °F 26.4 °F 28.4 °F 87% 29.53 in 10.0 mi South 5.8 mph - N/A   Clear
4:55 AM 32.0 °F 24.2 °F 28.4 °F 87% 29.52 in 10.0 mi South 9.2 mph - N/A   Clear
5:15 AM 32.0 °F 24.8 °F 28.4 °F 87% 29.52 in 10.0 mi SSE 8.1 mph - N/A   Partly Cloudy
5:35 AM 32.0 °F 28.7 °F 28.4 °F 87% 29.51 in 10.0 mi South 3.5 mph - N/A   Clear
5:55 AM 32.0 °F 24.8 °F 28.4 °F 87% 29.50 in 10.0 mi SSW 8.1 mph - N/A   Clear
6:15 AM 32.0 °F 26.4 °F 28.4 °F 87% 29.49 in 10.0 mi WSW 5.8 mph - N/A   Clear
6:35 AM 32.0 °F 23.6 °F 28.4 °F 87% 29.49 in 10.0 mi WSW 10.4 mph - N/A   Clear
6:55 AM 30.2 °F 19.8 °F 26.6 °F 86% 29.48 in 10.0 mi West 13.8 mph - N/A   Clear
7:15 AM 30.2 °F 18.9 °F 26.6 °F 86% 29.48 in 10.0 mi West 16.1 mph - N/A   Clear
7:35 AM 30.2 °F 20.8 °F 26.6 °F 86% 29.47 in 10.0 mi West 11.5 mph - N/A   Clear
7:55 AM 30.2 °F 18.5 °F 26.6 °F 86% 29.47 in 10.0 mi West 17.3 mph - N/A   Clear
8:15 AM 30.2 °F 18.1 °F 28.4 °F 93% 29.47 in 10.0 mi West 18.4 mph - N/A   Clear
8:35 AM 32.0 °F 21.2 °F 28.4 °F 87% 29.47 in 10.0 mi West 16.1 mph - N/A   Clear
8:55 AM 32.0 °F 23.6 °F 28.4 °F 87% 29.46 in 10.0 mi West 10.4 mph - N/A   Clear
9:15 AM 32.0 °F 23.6 °F 28.4 °F 87% 29.47 in 10.0 mi West 10.4 mph - N/A   Clear
9:35 AM 32.0 °F 22.5 °F 28.4 °F 87% 29.47 in 10.0 mi West 12.7 mph - N/A   Clear
9:55 AM 32.0 °F 22.1 °F 28.4 °F 87% 29.46 in 10.0 mi West 13.8 mph - N/A   Clear
10:15 AM 32.0 °F 22.5 °F 28.4 °F 87% 29.46 in 10.0 mi West 12.7 mph - N/A   Clear
10:35 AM 32.0 °F 22.5 °F 28.4 °F 87% 29.45 in 10.0 mi West 12.7 mph - N/A   Clear
10:55 AM 33.8 °F 25.3 °F 30.2 °F 87% 29.44 in 10.0 mi West 11.5 mph - N/A   Clear
11:15 AM 33.8 °F 24.3 °F 30.2 °F 87% 29.44 in 10.0 mi West 13.8 mph - N/A   Clear
11:35 AM 33.8 °F 24.8 °F 30.2 °F 87% 29.44 in 10.0 mi West 12.7 mph - N/A   Clear
11:55 AM 35.6 °F 27.1 °F 30.2 °F 81% 29.44 in 10.0 mi West 12.7 mph - N/A   Clear
12:15 PM 35.6 °F 25.5 °F 30.2 °F 81% 29.44 in 10.0 mi West 17.3 mph - N/A   Clear
1:15 PM 35.6 °F 25.2 °F 32.0 °F 87% 29.43 in 10.0 mi West 18.4 mph - N/A   Clear
1:35 PM 35.6 °F 24.8 °F 32.0 °F 87% 29.42 in 10.0 mi West 19.6 mph - N/A   Clear
1:55 PM 35.6 °F 24.8 °F 32.0 °F 87% 29.42 in 10.0 mi West 19.6 mph 27.6 mph N/A   Scattered Clouds
2:15 PM 35.6 °F 24.2 °F 32.0 °F 87% 29.42 in 10.0 mi West 21.9 mph 26.5 mph N/A   Scattered Clouds
2:35 PM 33.8 °F 21.9 °F 32.0 °F 93% 29.43 in 10.0 mi West 21.9 mph 29.9 mph N/A   Partly Cloudy
2:55 PM 33.8 °F 22.8 °F 32.0 °F 93% 29.43 in 10.0 mi West 18.4 mph 26.5 mph N/A   Mostly Cloudy
3:15 PM 33.8 °F 23.2 °F 32.0 °F 93% 29.44 in 10.0 mi West 17.3 mph 23.0 mph N/A   Overcast
3:35 PM 33.8 °F 22.5 °F 32.0 °F 93% 29.44 in 10.0 mi WNW 19.6 mph 26.5 mph N/A   Overcast
3:55 PM 32.0 °F 21.2 °F 32.0 °F 100% 29.44 in 10.0 mi WNW 16.1 mph 24.2 mph N/A   Overcast
4:15 PM 32.0 °F 19.8 °F 32.0 °F 100% 29.44 in 10.0 mi WNW 20.7 mph 26.5 mph N/A   Overcast
4:35 PM 32.0 °F 19.8 °F 32.0 °F 100% 29.44 in 10.0 mi NW 20.7 mph 26.5 mph N/A   Overcast
4:55 PM 32.0 °F 20.5 °F 32.0 °F 100% 29.45 in 10.0 mi NW 18.4 mph 25.3 mph N/A   Mostly Cloudy
5:15 PM 30.2 °F 18.5 °F 30.2 °F 100% 29.46 in 10.0 mi NW 17.3 mph 23.0 mph N/A Rain Light Freezing Rain
5:35 PM 28.4 °F 17.5 °F 28.4 °F 100% 29.47 in 4.0 mi NW 13.8 mph - 0.01 in Snow Light Snow
6:15 PM 30.2 °F 18.5 °F 30.2 °F 100% 29.49 in 3.0 mi NW 17.3 mph 23.0 mph 0.02 in Snow Light Snow
6:35 PM 28.4 °F 15.8 °F 28.4 °F 100% 29.49 in 1.8 mi NNW 18.4 mph 26.5 mph 0.08 in Snow Light Snow
6:55 PM 30.2 °F 18.1 °F 30.2 °F 100% 29.50 in 1.8 mi NNW 18.4 mph 26.5 mph 0.22 in Snow Light Snow
7:15 PM 28.4 °F 15.4 °F 28.4 °F 100% 29.51 in 2.0 mi NNW 19.6 mph 26.5 mph 0.19 in Snow Light Snow
7:35 PM 28.4 °F 15.1 °F 28.4 °F 100% 29.52 in 2.0 mi NNW 20.7 mph 27.6 mph 0.32 in Snow Light Snow
7:55 PM 28.4 °F 14.7 °F 28.4 °F 100% 29.53 in 1.5 mi NNW 21.9 mph - 0.42 in Snow Light Snow
8:15 PM 28.4 °F 14.1 °F 28.4 °F 100% 29.54 in 1.8 mi North 24.2 mph 32.2 mph 0.07 in Snow Light Snow
8:35 PM 28.4 °F 15.4 °F 28.4 °F 100% 29.55 in 1.5 mi NNW 19.6 mph 29.9 mph 0.24 in Snow Light Snow
8:55 PM 26.6 °F 12.7 °F 26.6 °F 100% 29.57 in 1.5 mi NNW 20.7 mph 29.9 mph 0.39 in Snow Light Snow
9:15 PM 26.6 °F 12.7 °F 26.6 °F 100% 29.59 in 2.0 mi North 20.7 mph 27.6 mph 0.10 in Snow Light Snow
9:35 PM 24.8 °F 10.0 °F 24.8 °F 100% 29.60 in 1.8 mi North 21.9 mph - 0.20 in Snow Light Snow
9:55 PM 23.0 °F 7.2 °F 23.0 °F 100% 29.62 in 3.0 mi North 23.0 mph 28.8 mph 0.28 in   Overcast
10:15 PM 21.2 °F 3.9 °F 19.4 °F 93% 29.64 in 2.5 mi North 26.5 mph 31.1 mph 0.01 in Snow Light Snow
10:35 PM 19.4 °F 1.4 °F 19.4 °F 100% 29.65 in 2.0 mi North 26.5 mph 32.2 mph 0.06 in Snow Light Snow
10:55 PM 19.4 °F 2.5 °F 17.6 °F 93% 29.66 in 6.0 mi North 23.0 mph 31.1 mph 0.09 in Snow Light Snow
11:15 PM 17.6 °F 1.3 °F 17.6 °F 100% 29.69 in 1.8 mi North 19.6 mph 27.6 mph 0.01 in Snow Light Snow
11:35 PM 17.6 °F -0.6 °F 17.6 °F 100% 29.69 in 2.5 mi North 25.3 mph - 0.04 in Snow Light Snow
11:55 PM 17.6 °F 0.1 °F 17.6 °F 100% 29.71 in 2.5 mi North 23.0 mph - 0.06 in Snow Light Snow